TimeCST,TemperatureF,Dew PointF,Humidity,Sea Level PressureIn,VisibilityMPH,Wind Direction,Wind SpeedMPH,Gust SpeedMPH,PrecipitationIn,Events,Conditions,WindDirDegrees,DateUTC
12:15 AM,53.6,44.6,72,30.09,10.0,South,8.1,-,N/A,,Clear,180,2012-12-01 06:15:00
12:35 AM,53.6,44.6,72,30.10,10.0,South,6.9,-,N/A,,Clear,180,2012-12-01 06:35:00
12:55 AM,51.8,44.6,76,30.10,10.0,South,6.9,-,N/A,,Partly Cloudy,180,2012-12-01 06:55:00
1:15 AM,53.6,44.6,72,30.11,10.0,South,6.9,-,N/A,,Mostly Cloudy,170,2012-12-01 07:15:00
1:35 AM,53.6,46.4,77,30.10,10.0,South,6.9,-,N/A,,Overcast,170,2012-12-01 07:35:00
1:55 AM,53.6,46.4,77,30.10,10.0,South,6.9,-,N/A,,Overcast,170,2012-12-01 07:55:00
2:15 AM,53.6,46.4,77,30.10,10.0,South,6.9,-,N/A,,Overcast,170,2012-12-01 08:15:00
3:35 AM,53.6,46.4,77,30.09,10.0,South,9.2,-,N/A,,Overcast,170,2012-12-01 09:35:00
3:55 AM,53.6,48.2,82,30.09,10.0,SSE,6.9,-,N/A,,Overcast,160,2012-12-01 09:55:00
4:15 AM,55.4,48.2,77,30.08,10.0,SSE,6.9,-,N/A,,Overcast,150,2012-12-01 10:15:00
4:35 AM,55.4,48.2,77,30.07,10.0,SSE,5.8,-,N/A,,Overcast,150,2012-12-01 10:35:00
5:15 AM,55.4,48.2,77,30.07,10.0,SSE,8.1,-,N/A,,Overcast,160,2012-12-01 11:15:00
5:35 AM,55.4,48.2,77,30.06,10.0,SSE,8.1,-,N/A,,Overcast,160,2012-12-01 11:35:00
6:15 AM,55.4,48.2,77,30.05,10.0,SSE,6.9,-,N/A,,Mostly Cloudy,150,2012-12-01 12:15:00
6:35 AM,55.4,48.2,77,30.05,10.0,SSE,5.8,-,N/A,,Clear,160,2012-12-01 12:35:00
6:55 AM,55.4,48.2,77,30.05,10.0,SSE,8.1,-,N/A,,Clear,150,2012-12-01 12:55:00
7:15 AM,55.4,48.2,77,30.04,9.0,SSE,6.9,-,N/A,,Clear,150,2012-12-01 13:15:00
7:35 AM,53.6,48.2,82,30.04,9.0,SSE,8.1,-,N/A,,Clear,160,2012-12-01 13:35:00
7:55 AM,55.4,48.2,77,30.04,9.0,South,10.4,-,N/A,,Clear,170,2012-12-01 13:55:00
8:15 AM,55.4,48.2,77,30.04,9.0,South,12.7,16.1,N/A,,Clear,180,2012-12-01 14:15:00
8:35 AM,55.4,48.2,77,30.03,10.0,South,8.1,-,N/A,,Clear,170,2012-12-01 14:35:00
8:55 AM,57.2,50.0,77,30.03,10.0,South,13.8,-,N/A,,Clear,180,2012-12-01 14:55:00
9:15 AM,57.2,50.0,77,30.03,10.0,South,11.5,19.6,N/A,,Clear,180,2012-12-01 15:15:00
9:35 AM,59.0,51.8,77,30.04,10.0,South,13.8,18.4,N/A,,Partly Cloudy,190,2012-12-01 15:35:00
9:55 AM,60.8,51.8,72,30.04,10.0,South,16.1,23.0,N/A,,Mostly Cloudy,180,2012-12-01 15:55:00
10:15 AM,60.8,51.8,72,30.02,10.0,South,12.7,18.4,N/A,,Overcast,180,2012-12-01 16:15:00
10:35 AM,62.6,51.8,68,30.02,10.0,South,16.1,23.0,N/A,,Mostly Cloudy,190,2012-12-01 16:35:00
10:55 AM,64.4,53.6,68,30.01,10.0,South,11.5,19.6,N/A,,Mostly Cloudy,180,2012-12-01 16:55:00
11:15 AM,64.4,53.6,68,29.99,10.0,South,10.4,20.7,N/A,,Overcast,190,2012-12-01 17:15:00
11:35 AM,64.4,53.6,68,29.98,10.0,South,16.1,23.0,N/A,,Overcast,190,2012-12-01 17:35:00
11:55 AM,64.4,53.6,68,29.97,10.0,South,17.3,23.0,N/A,,Mostly Cloudy,190,2012-12-01 17:55:00
12:15 PM,64.4,53.6,68,29.97,10.0,South,10.4,23.0,N/A,,Mostly Cloudy,190,2012-12-01 18:15:00
12:35 PM,66.2,53.6,64,29.96,10.0,SSW,15.0,21.9,N/A,,Overcast,200,2012-12-01 18:35:00
1:15 PM,66.2,53.6,64,29.93,10.0,South,15.0,23.0,N/A,,Mostly Cloudy,190,2012-12-01 19:15:00
1:35 PM,66.2,53.6,64,29.93,10.0,South,11.5,19.6,N/A,,Overcast,190,2012-12-01 19:35:00
1:55 PM,68.0,53.6,60,29.92,10.0,South,11.5,17.3,N/A,,Overcast,180,2012-12-01 19:55:00
2:15 PM,68.0,53.6,60,29.92,10.0,South,13.8,23.0,N/A,,Overcast,190,2012-12-01 20:15:00
2:35 PM,68.0,53.6,60,29.91,10.0,South,11.5,27.6,N/A,,Overcast,190,2012-12-01 20:35:00
2:55 PM,69.8,53.6,56,29.91,10.0,SSW,15.0,20.7,N/A,,Overcast,200,2012-12-01 20:55:00
3:15 PM,68.0,53.6,60,29.92,10.0,SSW,17.3,21.9,N/A,,Overcast,200,2012-12-01 21:15:00
3:35 PM,68.0,53.6,60,29.91,10.0,South,9.2,19.6,N/A,,Overcast,190,2012-12-01 21:35:00
4:15 PM,66.2,53.6,64,29.90,10.0,South,12.7,-,N/A,,Mostly Cloudy,170,2012-12-01 22:15:00
4:35 PM,66.2,53.6,64,29.90,10.0,South,10.4,18.4,N/A,,Mostly Cloudy,180,2012-12-01 22:35:00
4:55 PM,66.2,53.6,64,29.90,10.0,South,9.2,-,N/A,,Overcast,180,2012-12-01 22:55:00
5:15 PM,66.2,53.6,64,29.91,10.0,South,13.8,20.7,N/A,,Overcast,190,2012-12-01 23:15:00
5:55 PM,66.2,53.6,64,29.93,10.0,South,12.7,-,N/A,,Overcast,190,2012-12-01 23:55:00
6:15 PM,66.2,53.6,64,29.93,10.0,South,11.5,16.1,N/A,,Overcast,180,2012-12-02 00:15:00
6:35 PM,66.2,53.6,64,29.93,10.0,South,12.7,17.3,N/A,,Overcast,180,2012-12-02 00:35:00
6:55 PM,66.2,53.6,64,29.93,10.0,South,12.7,-,N/A,,Overcast,180,2012-12-02 00:55:00
7:15 PM,66.2,53.6,64,29.93,10.0,South,10.4,20.7,N/A,,Overcast,180,2012-12-02 01:15:00
7:35 PM,66.2,53.6,64,29.93,10.0,South,11.5,18.4,N/A,,Overcast,180,2012-12-02 01:35:00
7:55 PM,66.2,53.6,64,29.93,10.0,South,11.5,-,N/A,,Overcast,190,2012-12-02 01:55:00
8:15 PM,66.2,53.6,64,29.93,10.0,South,13.8,-,N/A,,Overcast,190,2012-12-02 02:15:00
8:35 PM,66.2,53.6,64,29.93,10.0,South,12.7,17.3,N/A,,Overcast,190,2012-12-02 02:35:00
8:55 PM,66.2,53.6,64,29.93,10.0,South,12.7,18.4,N/A,,Overcast,190,2012-12-02 02:55:00
9:15 PM,66.2,53.6,64,29.93,10.0,SSW,12.7,18.4,N/A,,Overcast,200,2012-12-02 03:15:00
9:35 PM,66.2,53.6,64,29.94,10.0,South,12.7,18.4,N/A,,Overcast,190,2012-12-02 03:35:00
9:55 PM,66.2,55.4,68,29.94,10.0,SSW,13.8,17.3,N/A,,Overcast,200,2012-12-02 03:55:00
10:15 PM,66.2,55.4,68,29.93,10.0,SSW,13.8,19.6,N/A,,Overcast,200,2012-12-02 04:15:00
10:35 PM,66.2,55.4,68,29.94,10.0,SSW,12.7,19.6,N/A,,Overcast,200,2012-12-02 04:35:00
10:55 PM,66.2,55.4,68,29.94,10.0,South,16.1,19.6,N/A,,Mostly Cloudy,190,2012-12-02 04:55:00
11:15 PM,66.2,55.4,68,29.94,10.0,SSW,11.5,-,N/A,,Mostly Cloudy,200,2012-12-02 05:15:00
11:35 PM,64.4,55.4,73,29.94,10.0,South,12.7,18.4,N/A,,Mostly Cloudy,190,2012-12-02 05:35:00
11:55 PM,64.4,53.6,68,29.94,10.0,South,11.5,-,N/A,,Mostly Cloudy,180,2012-12-02 05:55:00